Flag for Nepal Weather past 2 weeks in Kathmandu, Nepal

Now
72 °F

Partly sunny.


Feels Like: 75 °F
Forecast: 54 / 90 °F
Wind: No wind

Location: Kathmandu Airport

Current Time: Jun 3, 2015 at 7:42:58 AM

Latest Report: Jun 3, 2015 at 6:35 AM


Visibility: 4 mi

Pressure: 29.98 "Hg

Humidity: 69%

Dew point: 61 °F

Location of KathmanduLocation

Historic Weather in Kathmandu — Graph

°F

Kathmandu temperature yesterday

Maximum temperature yesterday: 91 °F (at 1:35 PM)
Minimum temperature yesterday: 64 °F (at 5:35 AM)
Average temperature yesterday: 77 °F

Past Weeks' High & Low Weather Summary

 TemperatureHumidityPressure
High91 °F (Jun 2, 1:35 PM)94% (May 24, 5:35 AM)30.07 "Hg (May 24, 5:35 AM)
Low57 °F (May 24, 5:35 AM)22% (May 23, 2:35 PM)29.74 "Hg (May 22, 2:35 PM)
Average75 °F64%29.87 "Hg
* Reported May 19 6:35 AM — Jun 3 6:35 AM, Kathmandu, Weather by CustomWeather, © 2015

Note: Actual official high and low records may vary slightly from our data, if they occured in-between our weather recording intervals... More about our weather records

Advertising

Kathmandu weather history for previous 24 hours

 ConditionsComfort  
Time TempWeatherWind HumidityBarometerVisibility
6:35 AM
Wed, Jun 3
72 °FPartly sunny.No wind69%29.98 "Hg4 mi
5:35 AM66 °FPassing clouds.No wind78%29.98 "Hg4 mi
4:35 AM66 °FPassing clouds.No wind78%29.95 "Hg4 mi
3:35 AM66 °FPassing clouds.No wind78%29.95 "Hg4 mi
2:35 AM68 °FPassing clouds.No wind73%29.95 "Hg4 mi
1:35 AM68 °FPassing clouds.No wind73%29.95 "Hg4 mi
11:35 PM
Tue, Jun 2
73 °FPassing clouds.No wind57%29.95 "Hg5 mi
8:35 PM79 °FPassing clouds.5 mph45%29.92 "Hg5 mi
7:35 PM81 °FPassing clouds.7 mph45%29.89 "HgN/A
6:35 PM84 °FPassing clouds.9 mph37%29.86 "HgN/A
5:35 PM88 °FPassing clouds.13 mph27%29.86 "HgN/A
4:35 PM88 °FPassing clouds.13 mph25%29.86 "HgN/A
3:35 PM70 °FPassing clouds.13 mph53%29.89 "HgN/A
2:35 PM70 °FPassing clouds.14 mph50%29.89 "HgN/A
1:35 PM91 °FPassing clouds.7 mph24%29.92 "HgN/A
12:35 PM88 °FPassing clouds.8 mph24%29.95 "HgN/A
11:35 AM86 °FPassing clouds.6 mph38%29.95 "Hg5 mi
10:35 AM82 °FPassing clouds.3 mph45%29.98 "Hg4 mi
9:35 AM81 °FScattered clouds.2 mph51%29.98 "Hg4 mi
8:35 AM77 °FScattered clouds.No wind57%29.98 "Hg4 mi
7:35 AM73 °FPartly sunny.No wind61%29.98 "Hg4 mi
Weather by CustomWeather, © 2015

See weather overviewHow to use our weather pages